Year,Month,Day,Hour,Minute,Value (Times are PST for temperature in C)
2015,07,21,00,00,16.70
2015,07,21,00,01,16.70
2015,07,21,00,02,16.70
2015,07,21,00,03,16.70
2015,07,21,00,04,16.70
2015,07,21,00,05,16.70
2015,07,21,00,06,16.70
2015,07,21,00,07,16.70
2015,07,21,00,08,16.70
2015,07,21,00,09,16.70
2015,07,21,00,10,16.70
2015,07,21,00,11,16.70
2015,07,21,00,12,16.60
2015,07,21,00,13,16.60
2015,07,21,00,14,16.60
2015,07,21,00,15,16.60
2015,07,21,00,16,16.60
2015,07,21,00,17,16.60
2015,07,21,00,18,16.60
2015,07,21,00,19,16.60
2015,07,21,00,20,16.60
2015,07,21,00,21,16.60
2015,07,21,00,22,16.60
2015,07,21,00,23,16.60
2015,07,21,00,24,16.60
2015,07,21,00,25,16.50
2015,07,21,00,26,16.50
2015,07,21,00,27,16.50
2015,07,21,00,28,16.50
2015,07,21,00,29,16.50
2015,07,21,00,30,16.40
2015,07,21,00,31,16.40
2015,07,21,00,32,16.40
2015,07,21,00,33,16.40
2015,07,21,00,34,16.40
2015,07,21,00,35,16.40
2015,07,21,00,36,16.40
2015,07,21,00,37,16.40
2015,07,21,00,38,16.40
2015,07,21,00,39,16.40
2015,07,21,00,40,16.40
2015,07,21,00,41,16.40
2015,07,21,00,42,16.40
2015,07,21,00,43,16.40
2015,07,21,00,44,16.40
2015,07,21,00,45,16.40
2015,07,21,00,46,16.40
2015,07,21,00,47,16.40
2015,07,21,00,48,16.40
2015,07,21,00,49,16.40
2015,07,21,00,50,16.40
2015,07,21,00,51,16.40
2015,07,21,00,52,16.40
2015,07,21,00,53,16.40
2015,07,21,00,54,16.40
2015,07,21,00,55,16.40
2015,07,21,00,56,16.40
2015,07,21,00,57,16.40
2015,07,21,00,58,16.40
2015,07,21,00,59,16.40
2015,07,21,01,00,16.40
2015,07,21,01,01,16.40
2015,07,21,01,02,16.30
2015,07,21,01,03,16.30
2015,07,21,01,04,16.40
2015,07,21,01,05,16.40
2015,07,21,01,06,16.40
2015,07,21,01,07,16.40
2015,07,21,01,08,16.40
2015,07,21,01,09,16.40
2015,07,21,01,10,16.40
2015,07,21,01,11,16.40
2015,07,21,01,12,16.40
2015,07,21,01,13,16.40
2015,07,21,01,14,16.30
2015,07,21,01,15,16.30
2015,07,21,01,16,16.30
2015,07,21,01,17,16.30
2015,07,21,01,18,16.30
2015,07,21,01,19,16.30
2015,07,21,01,20,16.30
2015,07,21,01,21,16.30
2015,07,21,01,22,16.30
2015,07,21,01,23,16.30
2015,07,21,01,24,16.30
2015,07,21,01,25,16.30
2015,07,21,01,26,16.30
2015,07,21,01,27,16.30
2015,07,21,01,28,16.30
2015,07,21,01,29,16.30
2015,07,21,01,30,16.30
2015,07,21,01,31,16.30
2015,07,21,01,32,16.30
2015,07,21,01,33,16.30
2015,07,21,01,34,16.30
2015,07,21,01,35,16.30
2015,07,21,01,36,16.30
2015,07,21,01,37,16.30
2015,07,21,01,38,16.30
2015,07,21,01,39,16.30
2015,07,21,01,40,16.30
2015,07,21,01,41,16.30
2015,07,21,01,42,16.30
2015,07,21,01,43,16.30
2015,07,21,01,44,16.30
2015,07,21,01,45,16.30
2015,07,21,01,46,16.30
2015,07,21,01,47,16.30
2015,07,21,01,48,16.30
2015,07,21,01,49,16.30
2015,07,21,01,50,16.30
2015,07,21,01,51,16.30
2015,07,21,01,52,16.30
2015,07,21,01,53,16.30
2015,07,21,01,54,16.30
2015,07,21,01,55,16.30
2015,07,21,01,56,16.30
2015,07,21,01,57,16.30
2015,07,21,01,58,16.30
2015,07,21,01,59,16.20
2015,07,21,02,00,16.20
2015,07,21,02,01,16.20
2015,07,21,02,02,16.20
2015,07,21,02,03,16.20
2015,07,21,02,04,16.20
2015,07,21,02,05,16.20
2015,07,21,02,06,16.20
2015,07,21,02,07,16.20
2015,07,21,02,08,16.20
2015,07,21,02,09,16.20
2015,07,21,02,10,16.10
2015,07,21,02,11,16.10
2015,07,21,02,12,16.10
2015,07,21,02,13,16.10
2015,07,21,02,14,16.10
2015,07,21,02,15,16.10
2015,07,21,02,16,16.10
2015,07,21,02,17,16.10
2015,07,21,02,18,16.10
2015,07,21,02,19,16.10
2015,07,21,02,20,16.10
2015,07,21,02,21,16.00
2015,07,21,02,22,16.00
2015,07,21,02,23,16.00
2015,07,21,02,24,16.00
2015,07,21,02,25,16.00
2015,07,21,02,26,16.00
2015,07,21,02,27,16.00
2015,07,21,02,28,15.90
2015,07,21,02,29,15.90
2015,07,21,02,30,15.90
2015,07,21,02,31,15.90
2015,07,21,02,32,15.90
2015,07,21,02,33,15.90
2015,07,21,02,34,15.90
2015,07,21,02,35,15.90
2015,07,21,02,36,15.90
2015,07,21,02,37,15.90
2015,07,21,02,38,15.80
2015,07,21,02,39,15.80
2015,07,21,02,40,15.80
2015,07,21,02,41,15.80
2015,07,21,02,42,15.80
2015,07,21,02,43,15.80
2015,07,21,02,44,15.80
2015,07,21,02,45,15.80
2015,07,21,02,46,15.80
2015,07,21,02,47,15.80
2015,07,21,02,48,15.80
2015,07,21,02,49,15.80
2015,07,21,02,50,15.80
2015,07,21,02,51,15.80
2015,07,21,02,52,15.80
2015,07,21,02,53,15.80
2015,07,21,02,54,15.80
2015,07,21,02,55,15.80
2015,07,21,02,56,15.80
2015,07,21,02,57,15.80
2015,07,21,02,58,15.80
2015,07,21,02,59,15.80
2015,07,21,03,00,15.80
2015,07,21,03,01,15.80
2015,07,21,03,02,15.80
2015,07,21,03,03,15.80
2015,07,21,03,04,15.80
2015,07,21,03,05,15.80
2015,07,21,03,06,15.80
2015,07,21,03,07,15.80
2015,07,21,03,08,15.80
2015,07,21,03,09,15.80
2015,07,21,03,10,15.80
2015,07,21,03,11,15.80
2015,07,21,03,12,15.80
2015,07,21,03,13,15.80
2015,07,21,03,14,15.80
2015,07,21,03,15,15.80
2015,07,21,03,16,15.70
2015,07,21,03,17,15.70
2015,07,21,03,18,15.70
2015,07,21,03,19,15.70
2015,07,21,03,20,15.70
2015,07,21,03,21,15.70
2015,07,21,03,22,15.70
2015,07,21,03,23,15.70
2015,07,21,03,24,15.60
2015,07,21,03,25,15.60
2015,07,21,03,26,15.60
2015,07,21,03,27,15.60
2015,07,21,03,28,15.60
2015,07,21,03,29,15.60
2015,07,21,03,30,15.60
2015,07,21,03,31,15.60
2015,07,21,03,32,15.60
2015,07,21,03,33,15.60
2015,07,21,03,34,15.60
2015,07,21,03,35,15.50
2015,07,21,03,36,15.50
2015,07,21,03,37,15.50
2015,07,21,03,38,15.50
2015,07,21,03,39,15.50
2015,07,21,03,40,15.50
2015,07,21,03,41,15.40
2015,07,21,03,42,15.40
2015,07,21,03,43,15.40
2015,07,21,03,44,15.40
2015,07,21,03,45,15.40
2015,07,21,03,46,15.40
2015,07,21,03,47,15.30
2015,07,21,03,48,15.30
2015,07,21,03,49,15.30
2015,07,21,03,50,15.30
2015,07,21,03,51,15.30
2015,07,21,03,52,15.30
2015,07,21,03,53,15.30
2015,07,21,03,54,15.30
2015,07,21,03,55,15.30
2015,07,21,03,56,15.30
2015,07,21,03,57,15.20
2015,07,21,03,58,15.20
2015,07,21,03,59,15.20
2015,07,21,04,00,15.20
2015,07,21,04,01,15.20
2015,07,21,04,02,15.20
2015,07,21,04,03,15.20
2015,07,21,04,04,15.20
2015,07,21,04,05,15.20
2015,07,21,04,06,15.20
2015,07,21,04,07,15.20
2015,07,21,04,08,15.20
2015,07,21,04,09,15.20
2015,07,21,04,10,15.10
2015,07,21,04,11,15.10
2015,07,21,04,12,15.10
2015,07,21,04,13,15.10
2015,07,21,04,14,15.10
2015,07,21,04,15,15.10
2015,07,21,04,16,15.10
2015,07,21,04,17,15.00
2015,07,21,04,18,15.00
2015,07,21,04,19,15.00
2015,07,21,04,20,15.00
2015,07,21,04,21,14.90
2015,07,21,04,22,14.90
2015,07,21,04,23,14.90
2015,07,21,04,24,14.90
2015,07,21,04,25,14.80
2015,07,21,04,26,14.80
2015,07,21,04,27,14.80
2015,07,21,04,28,14.80
2015,07,21,04,29,14.80
2015,07,21,04,30,14.80
2015,07,21,04,31,14.80
2015,07,21,04,32,14.70
2015,07,21,04,33,14.70
2015,07,21,04,34,14.70
2015,07,21,04,35,14.70
2015,07,21,04,36,14.70
2015,07,21,04,37,14.70
2015,07,21,04,38,14.70
2015,07,21,04,39,14.70
2015,07,21,04,40,14.70
2015,07,21,04,41,14.60
2015,07,21,04,42,14.60
2015,07,21,04,43,14.60
2015,07,21,04,44,14.60
2015,07,21,04,45,14.50
2015,07,21,04,46,14.50
2015,07,21,04,47,14.40
2015,07,21,04,48,14.40
2015,07,21,04,49,14.30
2015,07,21,04,50,14.30
2015,07,21,04,51,14.30
2015,07,21,04,52,14.20
2015,07,21,04,53,14.20
2015,07,21,04,54,14.20
2015,07,21,04,55,14.10
2015,07,21,04,56,14.10
2015,07,21,04,57,14.10
2015,07,21,04,58,14.00
2015,07,21,04,59,14.00
2015,07,21,05,00,13.90
2015,07,21,05,01,13.90
2015,07,21,05,02,13.90
2015,07,21,05,03,13.80
2015,07,21,05,04,13.80
2015,07,21,05,05,13.80
2015,07,21,05,06,13.80
2015,07,21,05,07,13.70
2015,07,21,05,08,13.70
2015,07,21,05,09,13.70
2015,07,21,05,10,13.70
2015,07,21,05,11,13.70
2015,07,21,05,12,13.70
2015,07,21,05,13,13.60
2015,07,21,05,14,13.60
2015,07,21,05,15,13.60
2015,07,21,05,16,13.60
2015,07,21,05,17,13.50
2015,07,21,05,18,13.50
2015,07,21,05,19,13.40
2015,07,21,05,20,13.40
2015,07,21,05,21,13.40
2015,07,21,05,22,13.40
2015,07,21,05,23,13.40
2015,07,21,05,24,13.40
2015,07,21,05,25,13.40
2015,07,21,05,26,13.30
2015,07,21,05,27,13.30
2015,07,21,05,28,13.30
2015,07,21,05,29,13.30
2015,07,21,05,30,13.30
2015,07,21,05,31,13.20
2015,07,21,05,32,13.20
2015,07,21,05,33,13.20
2015,07,21,05,34,13.20
2015,07,21,05,35,13.20
2015,07,21,05,36,13.10
2015,07,21,05,37,13.10
2015,07,21,05,38,13.00
2015,07,21,05,39,13.00
2015,07,21,05,40,13.00
2015,07,21,05,41,13.00
2015,07,21,05,42,12.90
2015,07,21,05,43,12.90
2015,07,21,05,44,12.90
2015,07,21,05,45,12.90
2015,07,21,05,46,12.90
2015,07,21,05,47,12.90
2015,07,21,05,48,12.80
2015,07,21,05,49,12.80
2015,07,21,05,50,12.80
2015,07,21,05,51,12.80
2015,07,21,05,52,12.80
2015,07,21,05,53,12.80
2015,07,21,05,54,12.70
2015,07,21,05,55,12.70
2015,07,21,05,56,12.70
2015,07,21,05,57,12.60
2015,07,21,05,58,12.60
2015,07,21,05,59,12.60
2015,07,21,06,00,12.60
2015,07,21,06,01,12.50
2015,07,21,06,02,12.50
2015,07,21,06,03,12.50
2015,07,21,06,04,12.50
2015,07,21,06,05,12.50
2015,07,21,06,06,12.40
2015,07,21,06,07,12.40
2015,07,21,06,08,12.40
2015,07,21,06,09,12.40
2015,07,21,06,10,12.40
2015,07,21,06,11,12.40
2015,07,21,06,12,12.40
2015,07,21,06,13,12.40
2015,07,21,06,14,12.40
2015,07,21,06,15,12.30
2015,07,21,06,16,12.30
2015,07,21,06,17,12.30
2015,07,21,06,18,12.30
2015,07,21,06,19,12.30
2015,07,21,06,20,12.30
2015,07,21,06,21,12.30
2015,07,21,06,22,12.30
2015,07,21,06,23,12.30
2015,07,21,06,24,12.30
2015,07,21,06,25,12.30
2015,07,21,06,26,12.30
2015,07,21,06,27,12.30
2015,07,21,06,28,12.30
2015,07,21,06,29,12.30
2015,07,21,06,30,12.30
2015,07,21,06,31,12.30
2015,07,21,06,32,12.30
2015,07,21,06,33,12.30
2015,07,21,06,34,12.30
2015,07,21,06,35,12.30
2015,07,21,06,36,12.30
2015,07,21,06,37,12.30
2015,07,21,06,38,12.20
2015,07,21,06,39,12.20
2015,07,21,06,40,12.20
2015,07,21,06,41,12.20
2015,07,21,06,42,12.20
2015,07,21,06,43,12.20
2015,07,21,06,44,12.20
2015,07,21,06,45,12.20
2015,07,21,06,46,12.20
2015,07,21,06,47,12.20
2015,07,21,06,48,12.20
2015,07,21,06,49,12.20
2015,07,21,06,50,12.20
2015,07,21,06,51,12.20
2015,07,21,06,52,12.20
2015,07,21,06,53,12.20
2015,07,21,06,54,12.20
2015,07,21,06,55,12.20
2015,07,21,06,56,12.20
2015,07,21,06,57,12.20
2015,07,21,06,58,12.20
2015,07,21,06,59,12.20
2015,07,21,07,00,12.20
2015,07,21,07,01,12.20
2015,07,21,07,02,12.20
2015,07,21,07,03,12.20
2015,07,21,07,04,12.30
2015,07,21,07,05,12.30
2015,07,21,07,06,12.30
2015,07,21,07,07,12.30
2015,07,21,07,08,12.40
2015,07,21,07,09,12.50
2015,07,21,07,10,12.50
2015,07,21,07,11,12.60
2015,07,21,07,12,12.70
2015,07,21,07,13,12.70
2015,07,21,07,14,12.80
2015,07,21,07,15,12.90
2015,07,21,07,16,12.90
2015,07,21,07,17,13.00
2015,07,21,07,18,13.00
2015,07,21,07,19,13.10
2015,07,21,07,20,13.10
2015,07,21,07,21,13.20
2015,07,21,07,22,13.20
2015,07,21,07,23,13.30
2015,07,21,07,24,13.40
2015,07,21,07,25,13.50
2015,07,21,07,26,13.60
2015,07,21,07,27,13.70
2015,07,21,07,28,13.80
2015,07,21,07,29,14.00
2015,07,21,07,30,14.10
2015,07,21,07,31,14.20
2015,07,21,07,32,14.30
2015,07,21,07,33,14.40
2015,07,21,07,34,14.50
2015,07,21,07,35,14.50
2015,07,21,07,36,14.60
2015,07,21,07,37,14.70
2015,07,21,07,38,14.70
2015,07,21,07,39,14.80
2015,07,21,07,40,14.80
2015,07,21,07,41,14.90
2015,07,21,07,42,14.90
2015,07,21,07,43,15.00
2015,07,21,07,44,15.10
2015,07,21,07,45,15.10
2015,07,21,07,46,15.20
2015,07,21,07,47,15.20
2015,07,21,07,48,15.20
2015,07,21,07,49,15.20
2015,07,21,07,50,15.20
2015,07,21,07,51,15.20
2015,07,21,07,52,15.20
2015,07,21,07,53,15.20
2015,07,21,07,54,15.20
2015,07,21,07,55,15.20
2015,07,21,07,56,15.20
2015,07,21,07,57,15.20
2015,07,21,07,58,15.20
2015,07,21,07,59,15.20
2015,07,21,08,00,15.20
2015,07,21,08,01,15.10
2015,07,21,08,02,15.20
2015,07,21,08,03,15.20
2015,07,21,08,04,15.20
2015,07,21,08,05,15.20
2015,07,21,08,06,15.20
2015,07,21,08,07,15.20
2015,07,21,08,08,15.20
2015,07,21,08,09,15.20
2015,07,21,08,10,15.30
2015,07,21,08,11,15.30
2015,07,21,08,12,15.30
2015,07,21,08,13,15.30
2015,07,21,08,14,15.40
2015,07,21,08,15,15.40
2015,07,21,08,16,15.40
2015,07,21,08,17,15.50
2015,07,21,08,18,15.50
2015,07,21,08,19,15.50
2015,07,21,08,20,15.60
2015,07,21,08,21,15.60
2015,07,21,08,22,15.60
2015,07,21,08,23,15.60
2015,07,21,08,24,15.70
2015,07,21,08,25,15.70
2015,07,21,08,26,15.70
2015,07,21,08,27,15.70
2015,07,21,08,28,15.70
2015,07,21,08,29,15.70
2015,07,21,08,30,15.80
2015,07,21,08,31,15.80
2015,07,21,08,32,15.80
2015,07,21,08,33,15.90
2015,07,21,08,34,15.90
2015,07,21,08,35,15.90
2015,07,21,08,36,15.90
2015,07,21,08,37,16.00
2015,07,21,08,38,16.00
2015,07,21,08,39,16.10
2015,07,21,08,40,16.10
2015,07,21,08,41,16.10
2015,07,21,08,42,16.10
2015,07,21,08,43,16.20
2015,07,21,08,44,16.20
2015,07,21,08,45,16.20
2015,07,21,08,46,16.30
2015,07,21,08,47,16.30
2015,07,21,08,48,16.30
2015,07,21,08,49,16.30
2015,07,21,08,50,16.30
2015,07,21,08,51,16.30
2015,07,21,08,52,16.30
2015,07,21,08,53,16.30
2015,07,21,08,54,16.40
2015,07,21,08,55,16.40
2015,07,21,08,56,16.50
2015,07,21,08,57,16.50
2015,07,21,08,58,16.50
2015,07,21,08,59,16.60
2015,07,21,09,00,16.60
2015,07,21,09,01,16.60
2015,07,21,09,02,16.60
2015,07,21,09,03,16.60
2015,07,21,09,04,16.70
2015,07,21,09,05,16.70
2015,07,21,09,06,16.70
2015,07,21,09,07,16.80
2015,07,21,09,08,16.80
2015,07,21,09,09,16.90
2015,07,21,09,10,16.90
2015,07,21,09,11,16.90
2015,07,21,09,12,17.00
2015,07,21,09,13,17.10
2015,07,21,09,14,17.10
2015,07,21,09,15,17.10
2015,07,21,09,16,17.20
2015,07,21,09,17,17.20
2015,07,21,09,18,17.30
2015,07,21,09,19,17.30
2015,07,21,09,20,17.30
2015,07,21,09,21,17.40
2015,07,21,09,22,17.40
2015,07,21,09,23,17.40
2015,07,21,09,24,17.40
2015,07,21,09,25,17.40
2015,07,21,09,26,17.40
2015,07,21,09,27,17.50
2015,07,21,09,28,17.50
2015,07,21,09,29,17.60
2015,07,21,09,30,17.70
2015,07,21,09,31,17.70
2015,07,21,09,32,17.70
2015,07,21,09,33,17.70
2015,07,21,09,34,17.70
2015,07,21,09,35,17.70
2015,07,21,09,36,17.70
2015,07,21,09,37,17.80
2015,07,21,09,38,17.80
2015,07,21,09,39,17.90
2015,07,21,09,40,18.00
2015,07,21,09,41,18.10
2015,07,21,09,42,18.20
2015,07,21,09,43,18.30
2015,07,21,09,44,18.30
2015,07,21,09,45,18.30
2015,07,21,09,46,18.30
2015,07,21,09,47,18.30
2015,07,21,09,48,18.40
2015,07,21,09,49,18.40
2015,07,21,09,50,18.40
2015,07,21,09,51,18.40
2015,07,21,09,52,18.40
2015,07,21,09,53,18.30
2015,07,21,09,54,18.30
2015,07,21,09,55,18.30
2015,07,21,09,56,18.30
2015,07,21,09,57,18.40
2015,07,21,09,58,18.50
2015,07,21,09,59,18.50
2015,07,21,10,00,18.60
2015,07,21,10,01,18.60
2015,07,21,10,02,18.70
2015,07,21,10,03,18.80
2015,07,21,10,04,18.90
2015,07,21,10,05,19.00
2015,07,21,10,06,19.00
2015,07,21,10,07,19.00
2015,07,21,10,08,18.90
2015,07,21,10,09,18.90
2015,07,21,10,10,18.80
2015,07,21,10,11,18.80
2015,07,21,10,12,18.70
2015,07,21,10,13,18.70
2015,07,21,10,14,18.70
2015,07,21,10,15,18.70
2015,07,21,10,16,18.70
2015,07,21,10,17,18.70
2015,07,21,10,18,18.70
2015,07,21,10,19,18.70
2015,07,21,10,20,18.80
2015,07,21,10,21,18.90
2015,07,21,10,22,18.90
2015,07,21,10,23,18.90
2015,07,21,10,24,18.90
2015,07,21,10,25,18.90
2015,07,21,10,26,18.90
2015,07,21,10,27,18.80
2015,07,21,10,28,18.90
2015,07,21,10,29,18.90
2015,07,21,10,30,19.00
2015,07,21,10,31,19.10
2015,07,21,10,32,19.20
2015,07,21,10,33,19.30
2015,07,21,10,34,19.30
2015,07,21,10,35,19.40
2015,07,21,10,36,19.40
2015,07,21,10,37,19.40
2015,07,21,10,38,19.40
2015,07,21,10,39,19.40
2015,07,21,10,40,19.50
2015,07,21,10,41,19.50
2015,07,21,10,42,19.60
2015,07,21,10,43,19.70
2015,07,21,10,44,19.80
2015,07,21,10,45,19.90
2015,07,21,10,46,20.00
2015,07,21,10,47,20.10
2015,07,21,10,48,20.20
2015,07,21,10,49,20.30
2015,07,21,10,50,20.40
2015,07,21,10,51,20.50
2015,07,21,10,52,20.50
2015,07,21,10,53,20.40
2015,07,21,10,54,20.40
2015,07,21,10,55,20.30
2015,07,21,10,56,20.30
2015,07,21,10,57,20.20
2015,07,21,10,58,20.20
2015,07,21,10,59,20.30
2015,07,21,11,00,20.30
2015,07,21,11,01,20.40
2015,07,21,11,02,20.40
2015,07,21,11,03,20.50
2015,07,21,11,04,20.50
2015,07,21,11,05,20.60
2015,07,21,11,06,20.70
2015,07,21,11,07,20.70
2015,07,21,11,08,20.70
2015,07,21,11,09,20.70
2015,07,21,11,10,20.70
2015,07,21,11,11,20.80
2015,07,21,11,12,20.80
2015,07,21,11,13,20.80
2015,07,21,11,14,20.90
2015,07,21,11,15,21.00
2015,07,21,11,16,21.00
2015,07,21,11,17,21.00
2015,07,21,11,18,21.00
2015,07,21,11,19,21.10
2015,07,21,11,20,21.20
2015,07,21,11,21,21.30
2015,07,21,11,22,21.40
2015,07,21,11,23,21.50
2015,07,21,11,24,21.60
2015,07,21,11,25,21.80
2015,07,21,11,26,21.90
2015,07,21,11,27,21.90
2015,07,21,11,28,21.90
2015,07,21,11,29,22.00
2015,07,21,11,30,22.00
2015,07,21,11,31,21.90
2015,07,21,11,32,21.90
2015,07,21,11,33,21.90
2015,07,21,11,34,22.00
2015,07,21,11,35,22.00
2015,07,21,11,36,22.10
2015,07,21,11,37,22.10
2015,07,21,11,38,22.10
2015,07,21,11,39,22.10
2015,07,21,11,40,22.10
2015,07,21,11,41,22.20
2015,07,21,11,42,22.10
2015,07,21,11,43,22.10
2015,07,21,11,44,22.10
2015,07,21,11,45,22.10
2015,07,21,11,46,22.10
2015,07,21,11,47,22.10
2015,07,21,11,48,22.10
2015,07,21,11,49,22.10
2015,07,21,11,50,22.10
2015,07,21,11,51,22.10
2015,07,21,11,52,22.10
2015,07,21,11,53,22.10
2015,07,21,11,54,22.10
2015,07,21,11,55,22.10
2015,07,21,11,56,22.20
2015,07,21,11,57,22.30
2015,07,21,11,58,22.40
2015,07,21,11,59,22.40
2015,07,21,12,00,22.40
2015,07,21,12,01,22.40
2015,07,21,12,02,22.40
2015,07,21,12,03,22.40
2015,07,21,12,04,22.40
2015,07,21,12,05,22.50
2015,07,21,12,06,22.60
2015,07,21,12,07,22.70
2015,07,21,12,08,22.70
2015,07,21,12,09,22.70
2015,07,21,12,10,22.70
2015,07,21,12,11,22.60
2015,07,21,12,12,22.60
2015,07,21,12,13,22.70
2015,07,21,12,14,22.80
2015,07,21,12,15,22.80
2015,07,21,12,16,22.80
2015,07,21,12,17,22.80
2015,07,21,12,18,22.70
2015,07,21,12,19,22.70
2015,07,21,12,20,22.70
2015,07,21,12,21,22.70
2015,07,21,12,22,22.70
2015,07,21,12,23,22.80
2015,07,21,12,24,22.80
2015,07,21,12,25,22.80
2015,07,21,12,26,22.80
2015,07,21,12,27,22.90
2015,07,21,12,28,23.00
2015,07,21,12,29,23.10
2015,07,21,12,30,23.20
2015,07,21,12,31,23.30
2015,07,21,12,32,23.40
2015,07,21,12,33,23.50
2015,07,21,12,34,23.40
2015,07,21,12,35,23.40
2015,07,21,12,36,23.30
2015,07,21,12,37,23.20
2015,07,21,12,38,23.10
2015,07,21,12,39,23.00
2015,07,21,12,40,23.00
2015,07,21,12,41,23.00
2015,07,21,12,42,23.00
2015,07,21,12,43,22.90
2015,07,21,12,44,22.90
2015,07,21,12,45,22.90
2015,07,21,12,46,23.00
2015,07,21,12,47,23.10
2015,07,21,12,48,23.20
2015,07,21,12,49,23.20
2015,07,21,12,50,23.40
2015,07,21,12,51,23.40
2015,07,21,12,52,23.40
2015,07,21,12,53,23.30
2015,07,21,12,54,23.30
2015,07,21,12,55,23.40
2015,07,21,12,56,23.40
2015,07,21,12,57,23.50
2015,07,21,12,58,23.50
2015,07,21,12,59,23.60
2015,07,21,13,00,23.60
2015,07,21,13,01,23.60
2015,07,21,13,02,23.60
2015,07,21,13,03,23.70
2015,07,21,13,04,23.70
2015,07,21,13,05,23.80
2015,07,21,13,06,23.90
2015,07,21,13,07,24.00
2015,07,21,13,08,24.10
2015,07,21,13,09,24.20
2015,07,21,13,10,24.20
2015,07,21,13,11,24.20
2015,07,21,13,12,24.20
2015,07,21,13,13,24.10
2015,07,21,13,14,24.00
2015,07,21,13,15,23.80
2015,07,21,13,16,23.70
2015,07,21,13,17,23.50
2015,07,21,13,18,23.40
2015,07,21,13,19,23.30
2015,07,21,13,20,23.30
2015,07,21,13,21,23.30
2015,07,21,13,22,23.20
2015,07,21,13,23,23.20
2015,07,21,13,24,23.20
2015,07,21,13,25,23.10
2015,07,21,13,26,23.10
2015,07,21,13,27,23.10
2015,07,21,13,28,23.20
2015,07,21,13,29,23.20
2015,07,21,13,30,23.30
2015,07,21,13,31,23.40
2015,07,21,13,32,23.50
2015,07,21,13,33,23.60
2015,07,21,13,34,23.70
2015,07,21,13,35,23.80
2015,07,21,13,36,24.00
2015,07,21,13,37,24.10
2015,07,21,13,38,24.20
2015,07,21,13,39,24.30
2015,07,21,13,40,24.30
2015,07,21,13,41,24.30
2015,07,21,13,42,24.30
2015,07,21,13,43,24.30
2015,07,21,13,44,24.20
2015,07,21,13,45,24.10
2015,07,21,13,46,24.10
2015,07,21,13,47,24.00
2015,07,21,13,48,24.00
2015,07,21,13,49,23.90
2015,07,21,13,50,23.90
2015,07,21,13,51,23.90
2015,07,21,13,52,23.90
2015,07,21,13,53,23.90
2015,07,21,13,54,23.90
2015,07,21,13,55,23.80
2015,07,21,13,56,23.90
2015,07,21,13,57,23.90
2015,07,21,13,58,23.90
2015,07,21,13,59,24.00
2015,07,21,14,00,23.90
2015,07,21,14,01,23.90
2015,07,21,14,02,23.90
2015,07,21,14,03,23.90
2015,07,21,14,04,23.90
2015,07,21,14,05,23.90
2015,07,21,14,06,23.90
2015,07,21,14,07,24.00
2015,07,21,14,08,24.00
2015,07,21,14,09,24.10
2015,07,21,14,10,24.10
2015,07,21,14,11,24.10
2015,07,21,14,12,24.10
2015,07,21,14,13,24.00
2015,07,21,14,14,24.00
2015,07,21,14,15,23.90
2015,07,21,14,16,23.90
2015,07,21,14,17,23.90
2015,07,21,14,18,23.90
2015,07,21,14,19,23.90
2015,07,21,14,20,23.90
2015,07,21,14,21,23.90
2015,07,21,14,22,23.90
2015,07,21,14,23,23.90
2015,07,21,14,24,23.90
2015,07,21,14,25,23.90
2015,07,21,14,26,23.80
2015,07,21,14,27,23.80
2015,07,21,14,28,23.80
2015,07,21,14,29,23.70
2015,07,21,14,30,23.80
2015,07,21,14,31,23.70
2015,07,21,14,32,23.80
2015,07,21,14,33,23.90
2015,07,21,14,34,23.90
2015,07,21,14,35,24.00
2015,07,21,14,36,24.00
2015,07,21,14,37,24.00
2015,07,21,14,38,23.90
2015,07,21,14,39,23.90
2015,07,21,14,40,23.90
2015,07,21,14,41,23.80
2015,07,21,14,42,23.80
2015,07,21,14,43,23.80
2015,07,21,14,44,23.80
2015,07,21,14,45,23.80
2015,07,21,14,46,23.80
2015,07,21,14,47,23.80
2015,07,21,14,48,23.80
2015,07,21,14,49,23.70
2015,07,21,14,50,23.70
2015,07,21,14,51,23.70
2015,07,21,14,52,23.60
2015,07,21,14,53,23.60
2015,07,21,14,54,23.60
2015,07,21,14,55,23.60
2015,07,21,14,56,23.60
2015,07,21,14,57,23.60
2015,07,21,14,58,23.60
2015,07,21,14,59,23.60
2015,07,21,15,00,23.70
2015,07,21,15,01,23.70
2015,07,21,15,02,23.70
2015,07,21,15,03,23.80
2015,07,21,15,04,23.80
2015,07,21,15,05,23.80
2015,07,21,15,06,23.90
2015,07,21,15,07,23.90
2015,07,21,15,08,23.90
2015,07,21,15,09,24.00
2015,07,21,15,10,24.10
2015,07,21,15,11,24.20
2015,07,21,15,12,24.20
2015,07,21,15,13,24.10
2015,07,21,15,14,24.00
2015,07,21,15,15,23.80
2015,07,21,15,16,23.60
2015,07,21,15,17,23.60
2015,07,21,15,18,23.50
2015,07,21,15,19,23.40
2015,07,21,15,20,23.30
2015,07,21,15,21,23.20
2015,07,21,15,22,23.00
2015,07,21,15,23,22.80
2015,07,21,15,24,22.60
2015,07,21,15,25,22.40
2015,07,21,15,26,22.20
2015,07,21,15,27,22.10
2015,07,21,15,28,21.90
2015,07,21,15,29,21.70
2015,07,21,15,30,21.60
2015,07,21,15,31,21.50
2015,07,21,15,32,21.50
2015,07,21,15,33,21.40
2015,07,21,15,34,21.30
2015,07,21,15,35,21.30
2015,07,21,15,36,21.20
2015,07,21,15,37,21.20
2015,07,21,15,38,21.10
2015,07,21,15,39,21.10
2015,07,21,15,40,21.00
2015,07,21,15,41,21.00
2015,07,21,15,42,20.90
2015,07,21,15,43,20.80
2015,07,21,15,44,20.80
2015,07,21,15,45,20.90
2015,07,21,15,46,20.90
2015,07,21,15,47,20.90
2015,07,21,15,48,20.80
2015,07,21,15,49,20.80
2015,07,21,15,50,20.80
2015,07,21,15,51,20.80
2015,07,21,15,52,20.70
2015,07,21,15,53,20.70
2015,07,21,15,54,20.60
2015,07,21,15,55,20.60
2015,07,21,15,56,20.60
2015,07,21,15,57,20.50
2015,07,21,15,58,20.40
2015,07,21,15,59,20.30
2015,07,21,16,00,20.30
2015,07,21,16,01,20.20
2015,07,21,16,02,20.20
2015,07,21,16,03,20.20
2015,07,21,16,04,20.10
2015,07,21,16,05,20.10
2015,07,21,16,06,20.10
2015,07,21,16,07,20.00
2015,07,21,16,08,19.90
2015,07,21,16,09,19.90
2015,07,21,16,10,19.90
2015,07,21,16,11,19.80
2015,07,21,16,12,19.70
2015,07,21,16,13,19.70
2015,07,21,16,14,19.70
2015,07,21,16,15,19.70
2015,07,21,16,16,19.80
2015,07,21,16,17,19.90
2015,07,21,16,18,20.00
2015,07,21,16,19,20.10
2015,07,21,16,20,20.20
2015,07,21,16,21,20.30
2015,07,21,16,22,20.40
2015,07,21,16,23,20.40
2015,07,21,16,24,20.40
2015,07,21,16,25,20.40
2015,07,21,16,26,20.40
2015,07,21,16,27,20.40
2015,07,21,16,28,20.40
2015,07,21,16,29,20.40
2015,07,21,16,30,20.40
2015,07,21,16,31,20.30
2015,07,21,16,32,20.30
2015,07,21,16,33,20.20
2015,07,21,16,34,20.10
2015,07,21,16,35,19.90
2015,07,21,16,36,19.80
2015,07,21,16,37,19.80
2015,07,21,16,38,19.70
2015,07,21,16,39,19.70
2015,07,21,16,40,19.60
2015,07,21,16,41,19.60
2015,07,21,16,42,19.60
2015,07,21,16,43,19.60
2015,07,21,16,44,19.60
2015,07,21,16,45,19.60
2015,07,21,16,46,19.50
2015,07,21,16,47,19.50
2015,07,21,16,48,19.50
2015,07,21,16,49,19.50
2015,07,21,16,50,19.40
2015,07,21,16,51,19.40
2015,07,21,16,52,19.40
2015,07,21,16,53,19.30
2015,07,21,16,54,19.30
2015,07,21,16,55,19.30
2015,07,21,16,56,19.30
2015,07,21,16,57,19.40
2015,07,21,16,58,19.40
2015,07,21,16,59,19.50
2015,07,21,17,00,19.50
2015,07,21,17,01,19.60
2015,07,21,17,02,19.60
2015,07,21,17,03,19.70
2015,07,21,17,04,19.70
2015,07,21,17,05,19.70
2015,07,21,17,06,19.70
2015,07,21,17,07,19.70
2015,07,21,17,08,19.70
2015,07,21,17,09,19.70
2015,07,21,17,10,19.70
2015,07,21,17,11,19.70
2015,07,21,17,12,19.70
2015,07,21,17,13,19.80
2015,07,21,17,14,19.80
2015,07,21,17,15,19.90
2015,07,21,17,16,20.00
2015,07,21,17,17,20.10
2015,07,21,17,18,20.10
2015,07,21,17,19,20.20